LA9XFA-6 messages


fromtotime message
MPAD LA9XFA-6 07/18 14:01:15z Reply 4318, Norway{LS
MPAD LA9XFA-6 07/18 14:01:09z Reply Addr: 19, Sandved terrasse, Skeiane, Sandved, Sandnes, Rogaland,{LR
MPAD LA9XFA-6 07/18 14:01:03z Reply UTM 32V 310501 6526699 MGRS 32VLL1050026699 LatLon 58.83833/5.71617{LQ
MPAD LA9XFA-6 07/18 14:00:57z Reply Pos for LA9XFA-6 Grid JO28uu51 DMS N58.50'18.0/E05.42'58.2 Alt 68m{LP
LA9XFA-6 MPAD 07/18 14:00:51z Send another whereami{57
MPAD LA9XFA-6 07/18 14:00:29z Reply Spor 3 Kirkegata Trones Dst 2 km Brg 36 deg NE{LO
LA9XFA-6 MPAD 07/18 14:00:18z Send another osm pub{56
MPAD LA9XFA-6 07/18 13:59:40z Reply Rema 1000 Sandved Jaerveien Sandved Dst 1 km Brg 92 deg E{LN
LA9XFA-6 MPAD 07/18 13:59:29z Send another osm supermarket{55
WLNK-1 LA9XFA-6 07/18 13:57:49z Reply Login [254]:{873
MPAD LA9XFA-6 07/18 13:57:07z Reply Brg 346 deg NNW{LM
MPAD LA9XFA-6 07/18 13:57:01z Reply Sandnes brannstasjon Brannstasjonsveien Stangaland Dst 3 km{LL
LA9XFA-6 MPAD 07/18 13:56:50z Send another osm fire_station{53
MPAD LA9XFA-6 07/18 13:55:27z Reply Akuttmottak Auglend Dst 11 km Brg 357 deg N{LK
LA9XFA-6 MPAD 07/18 13:55:17z Send another osm ambulance_station{52
MPAD LA9XFA-6 07/18 13:52:39z Reply METAR ENZV 181320Z 32013KT CAVOK 19/11 Q1008 NOSIG{LG
LA9XFA-6 MPAD 07/18 13:52:32z Send another ICAO ENZV{51
LA9XFA-6 WLNK-1 07/18 13:51:27z Send another B{50
LA9XFA-6 WLNK-1 07/18 13:50:35z Send another L{49
LA9XFA-6 WLNK-1 07/18 13:49:28z Send another B{48
LA9XFA-6 WLNK-1 07/18 13:48:16z Send another G1{47
LA9XFA-6 WLNK-1 07/18 13:46:36z Send another ?{46
LA9XFA-6 WLNK-1 07/18 13:45:27z Send another L{45
LA9XFA-6 WLNK-1 07/18 13:44:29z Send another IFA9TO{44
LA9XFA-6 WLNK-1 07/18 13:42:48z Send another L{43
MPAD LA9XFA-6 07/18 10:08:01z Reply https://ukrepeater.net/my_repeater.php?id=4202 IP90jd54{LB
MPAD LA9XFA-6 07/18 10:07:55z Reply Information sourced from ukrepeater.net:{LA
MPAD LA9XFA-6 07/18 10:07:49z Reply Lerwick (UK), United Kingdom repeater. Location is approximate.{KZ
MPAD LA9XFA-6 07/18 10:07:43z Reply location Dst 417 km 293 deg WNW 145.6750-0.6 MHz Enc 77 Dec 77{KY
MPAD LA9XFA-6 07/18 10:07:37z Reply http://www.irlp.net/status/index.php?nodeid=8111 JO56ba18 #5{KX
MPAD LA9XFA-6 07/18 10:07:31z Reply https://aprs.fi/#!mt=roadmap&z=12&call=a%2FIRLP-8111&timeran See{KW
MPAD LA9XFA-6 07/18 10:07:25z Reply Internet-connected IRLP node owned by OZ0IB.{KV
MPAD LA9XFA-6 07/18 10:07:19z Reply location Dst 408 km 138 deg SE 433.5500 MHz Enc 0 Dec 0{KU
MPAD LA9XFA-6 07/18 10:07:13z Reply http://www.irlp.net/status/index.php?nodeid=5019 JO56ba18 #4{KT
MPAD LA9XFA-6 07/18 10:07:07z Reply Dec 0.00 Internet-connected IRLP node owned by OZ0IB. See{KS
MPAD LA9XFA-6 07/18 10:07:01z Reply JO67et74 #3 location Dst 408 km 138 deg SE 145.3000 MHz Enc 0.00{KR
MPAD LA9XFA-6 07/18 10:06:55z Reply by SM6MLH. See http://www.irlp.net/status/index.php?nodeid=5668{KQ
MPAD LA9XFA-6 07/18 10:06:49z Reply 433.4750 MHz Enc 0.00 Dec 0.00 Internet-connected IRLP node owned{KP
MPAD LA9XFA-6 07/18 10:06:43z Reply Dec 123.0 Repeater JO28vw40 #2 location Dst 407 km 103 deg ESE{KO
MPAD LA9XFA-6 07/18 10:06:37z Reply #1 location Dst 11 km 25 deg NNE 145.6375-0.6 MHz Enc 123.0{KN
LA9XFA-6 MPAD 07/18 10:06:30z Send another repeater fm top5{42
MPAD LA9XFA-6 07/18 10:04:55z Reply Repeater JO28vw40{KM
MPAD LA9XFA-6 07/18 10:04:49z Reply location Dst 11 km 25 deg NNE 145.6375-0.6 MHz Enc 123.0 Dec 123.0{KL
LA9XFA-6 MPAD 07/18 10:04:42z Send another repeater FM{41
LA9XFA-6 WLNK-1 07/18 10:04:09z Send another B{40
LA9XFA-6 WLNK-1 07/18 10:02:58z Send another B{39
LA9XFA-6 WLNK-1 07/18 10:01:54z Send another I{38
LA9XFA-6 WLNK-1 07/18 10:00:51z Send another /EX{37
LA9XFA-6 WLNK-1 07/18 09:58:55z Send another /ex{35
LA9XFA-6 WLNK-1 07/18 09:58:51z Send another Her er hovedteksten {34
LA9XFA-6 WLNK-1 07/18 09:58:40z Send another Test fra APRS {33
LA9XFA-6 WLNK-1 07/18 09:58:31z Send another SP eivind.reiersen@gmail.com{32
LA9XFA-6 WLNK-1 07/18 09:57:32z Send another ?{31
LA9XFA-6 WLNK-1 07/18 09:56:23z Send another ? {30
WLNK-1 LA9XFA-6 07/18 09:56:12z Reply Unknown request. Send ? for help{841
LA9XFA-6 WLNK-1 07/18 09:56:11z Send another y{29
MPAD LA9XFA-6 07/18 09:55:05z Reply 4318, Norway{KK
MPAD LA9XFA-6 07/18 09:54:59z Reply Addr: 19, Sandved terrasse, Skeiane, Sandved, Sandnes, Rogaland,{KJ
MPAD LA9XFA-6 07/18 09:54:53z Reply UTM 32V 310510 6526699 MGRS 32VLL1051026698 LatLon 58.83833/5.71633{KI
MPAD LA9XFA-6 07/18 09:54:47z Reply Pos for LA9XFA-6 Grid JO28uu51 DMS N58.50'18.0/E05.42'58.8 Alt 72m{KH
LA9XFA-6 MPAD 07/18 09:54:40z Send another whereami{28
MPAD LA9XFA-6 07/18 09:53:39z Reply https://brandmeister.network/?page=repeater&id=242310 DMR JO28vw40{KG
MPAD LA9XFA-6 07/18 09:53:33z Reply Brandmeister See{KF
MPAD LA9XFA-6 07/18 09:53:27z Reply location Dst 11 km 25 deg NNE 434.9750-2.0 MHz Enc CC1 Network:{KE
LA9XFA-6 MPAD 07/18 09:53:20z Send another repeater {27
LA9XFA-6 WLNK-1 07/18 09:37:29z Send another E{22
LA9XFA-6 WLNK-1 07/18 09:35:14z Send another H{21
LA9XFA-6 WLNK-1 07/18 09:33:53z Send another L{20
LA9XFA-6 WLNK-1 07/18 09:32:32z Send another BAALUN{19
WLNK-1 LA9XFA-6 07/18 09:31:07z Reply Login [156]:{836
LA9XFA-6 WLNK-1 07/18 09:31:06z Send another L{18
MPAD LA9XFA-6 07/15 22:38:24z Reply http://www.irlp.net/status/index.php?nodeid=5019 JO56ba18{DG
MPAD LA9XFA-6 07/15 22:38:18z Reply Dec 0.00 Internet-connected IRLP node owned by OZ0IB. See{DF
MPAD LA9XFA-6 07/15 22:38:12z Reply JO67et74 #3 location Dst 408 km 138 deg SE 145.3000 MHz Enc 0.00{DE
MPAD LA9XFA-6 07/15 22:38:06z Reply by SM6MLH. See http://www.irlp.net/status/index.php?nodeid=5668{DD
MPAD LA9XFA-6 07/15 22:38:00z Reply 433.4750 MHz Enc 0.00 Dec 0.00 Internet-connected IRLP node owned{DC
MPAD LA9XFA-6 07/15 22:37:54z Reply Dec 123.0 Repeater JO28vw40 #2 location Dst 407 km 103 deg ESE{DB
MPAD LA9XFA-6 07/15 22:37:48z Reply #1 location Dst 11 km 25 deg NNE 145.6375-0.6 MHz Enc 123.0{DA
LA9XFA-6 MPAD 07/15 22:37:41z Send another repeater fm top3{17
MPAD LA9XFA-6 07/15 22:35:47z Reply https://brandmeister.network/?page=repeater&id=242310 DMR JO28vw40{CY
MPAD LA9XFA-6 07/15 22:35:41z Reply Brandmeister See{CX
MPAD LA9XFA-6 07/15 22:35:35z Reply location Dst 11 km 25 deg NNE 434.9750-2.0 MHz Enc CC1 Network:{CW
LA9XFA-6 MPAD 07/15 22:35:28z Send another repeater top 3{16
MPAD LA9XFA-6 07/15 22:31:56z Reply The requested position report was emailed to its recipient{CV
LA9XFA-6 MPAD 07/15 22:31:47z Send another posmsg eivind.reiersen@gmail.com{15
WXBOT LA9XFA-6 07/15 22:22:18z Reply EW5674 58,wind:calm,1024.4mbar,rh:1%,rain:none
LA9XFA-6 WXBOT 07/15 22:22:09z Send another Stavanger,Norway today cwop{13
LA9XFA-6 WLNK-1 07/15 22:20:53z Send another I{12
LA9XFA-6 WLNK-1 07/15 22:19:30z Send another H{11
WLNK-1 LA9XFA-6 07/15 22:10:26z Reply Invalid login challenge response -- 1 attempts remaining{520
LA9XFA-6 WLNK-1 07/15 22:09:43z Send another Noe tekst /EX{10
LA9XFA-6 WLNK-1 07/15 22:09:25z Send another SP eivind.reiersen@gmail.com Test fra APRS {9
LA9XFA-6 WLNK-1 07/15 21:58:13z Send another SP eivind.reiersen@gmail.com Test{8
LA9XFA-6 WLNK-1 07/15 21:55:00z Send another L{7
WLNK-1 LA9XFA-6 07/15 21:52:27z Reply SP, SMS, L, R#, K#, Y#, F#, P, G, A, I, PR, B (? + cmd for more){517
LA9XFA-6 WLNK-1 07/15 21:52:27z Send another H{5
LA9XFA-6 APRS 07/14 10:09:44z Send another Stavanger,Norway today cwop{3
LA9XFA-6 APRS 07/10 21:42:46z Send another test{2
LA9XFA-6 WXBOT 07/10 21:42:07z Send another Stavanger,Noway today cwop{1